Location: Marcé
(47.5801°N, 0.3280°W)
Time: 01:00:40
(UTC+01:00)

Vanguard 2 - Pass Details

Date: 02 December 2021
Orbit: 553 x 2936 km, 32.9° (Epoch: 20 January)

Event Time Altitude Azimuth Distance (km) Brightness Sun altitude
Rises 18:38:25 0° 256° (WSW) 3,896 13.1 -14.1°
Reaches altitude 10° 18:41:18 10° 243° (WSW) 3,238 12.1 -14.5°
Maximum altitude 18:47:52 25° 191° (S) 2,875 10.7 -15.6°
Drops below altitude 10° 18:57:15 10° 143° (SE) 4,752 11.3 -17.1°
Sets 19:02:39 0° 133° (SE) 6,146 11.8 -18.0°
